Location: *
(1.3500°S, 147.5000°W)
Time: 17:37:09
(UTC+00:00)

Cosmos 614 Rocket - Pass Details

Date: 07 April 2020
Orbit: 734 x 763 km, 74.1° (Epoch: 28 May)

Event Time Altitude Azimuth Distance (km) Brightness Sun altitude
Rises 04:43:33 0° 194° (SSW) 3,215 7.3 -12.9°
Reaches altitude 10° 04:45:55 10° 195° (SSW) 2,290 6.6 -13.5°
Maximum altitude 04:51:07 82° 282° (WNW) 772 4.1 -14.8°
Drops below altitude 10° 04:56:19 10° 9° (N) 2,286 6.4 -16.1°
Sets 04:58:41 0° 10° (N) 3,208 7.2 -16.7°
